Sturgeon Bay, WI

4:09 AM CST on November 13, 2019 (GMT -0600)
Door County Cherryland

Weather History for KSUE - October, 2019

Change the Weather History Date:

Monday, October 21, 2019

  Actual Average Record
Temperature  
Mean Temperature 50 °F -  
Max Temperature 55 °F 53 °F 79 °F (1920)
Min Temperature 45 °F 38 °F 25 °F (1907)
Degree Days  
Heating Degree Days 15    
Moisture  
Dew Point 51 °F    
Average Humidity 94    
Maximum Humidity 100    
Minimum Humidity 77    
Precipitation  
Precipitation 0.41 in - - ()
Sea Level Pressure  
Sea Level Pressure 29.58 in    
Wind  
Wind Speed 12 mph (SE)    
Max Wind Speed 28 mph    
Max Gust Speed 38 mph    
Visibility 6 miles    
Events Fog , Rain    
Averages and records for this station are not official NWS values.
T = Trace of Precipitation, MM = Missing Value Source: NWS Daily Summary

Daily Weather History Graph

Daily Weather History Graph

Search for Another Location

Airport or City:

Astronomy

Oct. 21, 2019 Rise Set
Actual Time 7:12 AM CDT 5:55 PM CDT
Civil Twilight 6:42 AM CDT 6:24 PM CDT
Nautical Twilight 6:08 AM CDT 6:58 PM CDT
Astronomical Twilight 5:34 AM CDT 7:32 PM CDT
Moon No Moon Rise 2:39 PM CDT (10/21)
Length of Visible Light 11h 41m
Length of Day
10h 42m
Waning Gibbous, 48% of the Moon is Illuminated
Oct 21
Waning Gibbous
Oct 27
New
Nov 4
First Quarter
Nov 12
Full
Nov 19
Last Quarter

Hourly Weather History & Observations

Time (CDT) Temp. Windchill Dew Point Humidity Pressure Visibility Wind Dir Wind Speed Gust Speed Precip Events Conditions
12:56 AM 45.0 °F 40.6 °F 45.0 °F 100% 29.96 in 0.2 mi East 8.1 mph - N/A Fog Fog
1:56 AM 46.9 °F - 46.9 °F 100% 29.94 in 0.2 mi East 6.9 mph - N/A Fog Fog
2:37 AM 48.2 °F - 48.2 °F 100% 29.91 in 0.8 mi East 4.6 mph - N/A   Overcast
2:40 AM 48.2 °F - 48.2 °F 100% 29.91 in 1.2 mi East 4.6 mph - N/A   Overcast
2:45 AM 48.2 °F - 48.2 °F 100% 29.91 in 3.0 mi East 4.6 mph - N/A   Overcast
2:56 AM 48.9 °F - 48.9 °F 100% 29.91 in 6.0 mi Variable 4.6 mph - N/A   Mostly Cloudy
3:16 AM 50.0 °F - 48.2 °F 94% 29.90 in 8.0 mi East 6.9 mph - N/A   Partly Cloudy
3:56 AM 50.0 °F - 48.9 °F 96% 29.88 in 10.0 mi East 8.1 mph - N/A   Clear
4:56 AM 50.0 °F - 48.9 °F 96% 29.86 in 10.0 mi East 8.1 mph - N/A   Clear
5:56 AM 52.0 °F - 48.9 °F 89% 29.83 in 10.0 mi East 9.2 mph - N/A   Scattered Clouds
6:56 AM 53.1 °F - 48.0 °F 83% 29.79 in 10.0 mi ESE 11.5 mph 21.9 mph N/A   Overcast
7:56 AM 53.1 °F - 46.9 °F 80% 29.76 in 10.0 mi East 12.7 mph 20.7 mph N/A   Overcast
8:56 AM 53.1 °F - 46.0 °F 77% 29.74 in 10.0 mi ESE 17.3 mph 25.3 mph N/A   Overcast
9:56 AM 53.1 °F - 46.9 °F 80% 29.68 in 10.0 mi ESE 13.8 mph 24.2 mph N/A   Overcast
10:56 AM 53.1 °F - 46.9 °F 80% 29.59 in 10.0 mi East 10.4 mph 25.3 mph 0.00 in Rain Light Rain
11:56 AM 53.1 °F - 48.0 °F 83% 29.53 in 8.0 mi ESE 16.1 mph 25.3 mph 0.00 in Rain Light Rain
12:56 PM 52.0 °F - 50.0 °F 93% 29.47 in 7.0 mi East 15.0 mph 28.8 mph 0.04 in Rain Light Rain
1:50 PM 53.6 °F - 51.8 °F 94% 29.41 in 10.0 mi ESE 16.1 mph 26.5 mph 0.08 in Rain Light Rain
1:56 PM 54.0 °F - 52.0 °F 93% 29.41 in 3.0 mi ESE 13.8 mph 20.7 mph 0.13 in Rain Heavy Rain
2:47 PM 55.4 °F - 53.6 °F 94% 29.37 in 10.0 mi SE 20.7 mph 25.3 mph 0.09 in Rain Light Rain
2:56 PM 55.0 °F - 54.0 °F 96% 29.37 in 10.0 mi SE 19.6 mph 28.8 mph 0.09 in Rain Light Rain
3:45 PM 55.4 °F - 55.4 °F 100% 29.35 in 1.8 mi SSE 27.6 mph 35.7 mph 0.13 in Rain Rain
3:53 PM 55.4 °F - 55.4 °F 100% 29.36 in 3.0 mi SSE 27.6 mph 38.0 mph 0.15 in Rain Light Rain
3:56 PM 55.9 °F - 55.0 °F 97% 29.36 in 5.0 mi SSE 24.2 mph 38.0 mph 0.15 in Rain Light Rain
4:56 PM 55.9 °F - 54.0 °F 93% 29.36 in 10.0 mi South 23.0 mph 28.8 mph 0.00 in   Overcast
5:47 PM 55.4 °F - 53.6 °F 94% 29.36 in 10.0 mi SSE 20.7 mph 26.5 mph N/A   Overcast
5:56 PM 55.0 °F - 54.0 °F 96% 29.35 in 10.0 mi South 20.7 mph 28.8 mph N/A   Overcast
6:17 PM 55.4 °F - 53.6 °F 94% 29.37 in 1.5 mi South 17.3 mph 28.8 mph N/A   Overcast
6:21 PM 55.4 °F - 53.6 °F 94% 29.36 in 0.8 mi South 18.4 mph 26.5 mph N/A   Overcast
6:41 PM 55.4 °F - 53.6 °F 94% 29.36 in 0.5 mi South 20.7 mph 27.6 mph N/A Fog Fog
6:56 PM 54.0 °F - 54.0 °F 100% 29.37 in 0.8 mi South 16.1 mph 25.3 mph N/A   Overcast
7:09 PM 53.6 °F - 53.6 °F 100% 29.37 in 3.0 mi South 17.3 mph 23.0 mph N/A   Overcast
7:56 PM 52.0 °F - 51.1 °F 97% 29.38 in 10.0 mi South 13.8 mph - N/A   Mostly Cloudy
8:22 PM 51.8 °F - 50.0 °F 94% 29.38 in 10.0 mi SSE 9.2 mph - N/A   Scattered Clouds